[[{"header":{"parameterUnit":"m.s-1","parameterCategory":1,"la1":30.2991,"la2":30.254,"lo1":-89.0895,"lo2":-89.0444,"dy":0.0017,"dx":0.0017,"nx":28,"ny":28,"refTime":"2025-01-22T03:00:00:Z","depth":0,"parameterNumber":2,"parameterNumberName":"U-component_of_WINDS"},"data":[0,0,0,0,0,0,0,0,0,0,0,0,0,0,0,0,0,0,0,0,0,0,0,0,0,0,0,0,0,0,0,0,0,0,0,0,0,0,0,0,0,0,0,0,0,0,0,0,0,0,0,0,0,0,0,0,0,0,-0.077,-0.0771,0,-0.0875,-0.0876,-0.0877,-0.0884,-0.0882,-0.0881,-0.088,-0.099,-0.0994,-0.0998,0,0,0,0,0,0,0,0,0,0,0,0,0,-0.0576,-0.0579,-0.077,-0.0771,-0.0773,-0.0875,-0.0876,-0.0878,-0.0884,-0.0882,-0.0881,-0.0879,-0.0988,-0.0993,-0.0998,0,0,0,0,0,0,0,0,0,0,0,0,0,-0.0668,-0.058,-0.077,-0.0788,-0.0791,-0.0875,-0.0876,-0.0878,-0.0884,-0.0882,-0.088,-0.0879,-0.0987,-0.0993,-0.0999,-0.1072,0,0,-0.1017,-0.102,0,0,0,0,0,0,0,0,-0.0663,-0.0676,-0.0784,-0.0787,-0.079,-0.0864,-0.0848,-0.0943,-0.0885,-0.0849,-0.088,-0.0878,-0.095,-0.0959,-0.0982,-0.1078,-0.1082,-0.1018,-0.1021,-0.1024,-0.1026,0,0,0,0,0,0,0,-0.0657,-0.0671,-0.0812,-0.0785,-0.0789,-0.0791,-0.0802,-0.0866,-0.0908,-0.0852,-0.0852,-0.0865,-0.0951,-0.0976,-0.0985,-0.1084,-0.1018,-0.1023,-0.1027,-0.1029,-0.1244,-0.1246,0,0,0,0,0,0,-0.0647,-0.0666,-0.0808,-0.0815,-0.0721,-0.0796,-0.0809,-0.0842,-0.0907,-0.0916,-0.0866,-0.0864,-0.0967,-0.0978,-0.0989,-0.1079,-0.1024,-0.103,-0.1033,-0.1242,-0.1245,-0.1247,0,0,0,0,0,0,-0.0642,-0.0659,-0.0804,-0.074,-0.0759,-0.0801,-0.0839,-0.0845,-0.0871,-0.0918,-0.0926,-0.0884,-0.0966,-0.098,-0.1051,-0.1083,-0.1032,-0.1038,-0.124,-0.1243,-0.1246,-0.1261,0,0,0,0,0,0,-0.0637,-0.0658,-0.0686,-0.0741,-0.0762,-0.0865,-0.0841,-0.0849,-0.0881,-0.088,-0.0937,-0.0945,-0.0966,-0.1042,-0.1057,-0.1091,-0.1043,-0.1237,-0.1241,-0.1245,-0.1258,-0.1264,-0.1269,0,0,0,0,0,-0.063,-0.0687,-0.0687,-0.0705,-0.0799,-0.0866,-0.0879,-0.09,-0.0884,-0.0913,-0.0943,-0.0943,-0.1077,-0.1049,-0.1067,-0.1102,-0.1235,-0.124,-0.1244,-0.1255,-0.1263,-0.1269,0,0,0,0,0,0,-0.0636,-0.0694,-0.0696,-0.0772,-0.0814,-0.0867,-0.0905,-0.0908,-0.0956,-0.0953,-0.0979,-0.0992,-0.1062,-0.1089,-0.1057,-0.1176,-0.1154,-0.1162,-0.1156,-0.1164,-0.117,-0.1162,-0.1048,0,0,0,0,0,-0.0645,-0.0695,-0.0744,-0.0807,-0.0827,-0.0862,-0.0893,-0.0905,-0.095,-0.0968,-0.1004,-0.1048,-0.1099,-0.1133,-0.1183,-0.1261,-0.1274,-0.1294,-0.13,-0.1304,-0.1311,-0.1354,-0.1363,-0.1262,-0.1262,-0.1262,0,0,-0.0667,-0.0705,-0.0735,-0.0809,-0.0843,-0.0894,-0.0877,-0.0932,-0.0971,-0.0977,-0.1046,-0.1073,-0.1124,-0.1198,-0.1233,-0.1223,-0.1342,-0.131,-0.1313,-0.1318,-0.136,-0.1369,-0.1378,-0.1265,-0.1265,-0.1264,0,0,-0.0733,-0.0766,-0.0822,-0.0856,-0.0907,-0.093,-0.0943,-0.0995,-0.1013,-0.1083,-0.1088,-0.1134,-0.1223,-0.1258,-0.1288,-0.1365,-0.1368,-0.1381,-0.1412,-0.1453,-0.1461,-0.1468,-0.1496,-0.1505,-0.1388,-0.1388,-0.1388,0,-0.0753,-0.083,-0.085,-0.0905,-0.0937,-0.0944,-0.1,-0.1032,-0.1098,-0.112,-0.1108,-0.1218,-0.1253,-0.1335,-0.1354,-0.1378,-0.1394,-0.1375,-0.1458,-0.1466,-0.1473,-0.1499,-0.1509,-0.1389,-0.1389,-0.1389,-0.1388,0,-0.0853,-0.0906,-0.0944,-0.1006,-0.1042,-0.1098,-0.1127,-0.1161,-0.117,-0.1194,-0.1264,-0.1305,-0.1364,-0.1384,-0.1394,-0.1468,-0.146,-0.1453,-0.1431,-0.1483,-0.1509,-0.1519,-0.1391,-0.139,-0.139,-0.139,0,0,-0.0926,-0.0997,-0.1011,-0.1039,-0.1095,-0.1137,-0.1192,-0.1248,-0.1277,-0.1321,-0.1369,-0.1442,-0.1435,-0.1469,-0.1483,-0.1519,-0.1577,-0.1507,-0.1509,-0.1519,-0.166,-0.1666,-0.1678,-0.1578,-0.158,-0.1582,-0.1656,0,-0.0998,-0.1096,-0.1115,-0.1201,-0.125,-0.1256,-0.1304,-0.1344,-0.1367,-0.1412,-0.1438,-0.149,-0.1477,-0.1497,-0.1533,-0.1562,-0.1606,-0.1557,-0.1623,-0.1625,-0.1611,-0.1691,-0.1697,-0.1766,-0.1666,-0.1668,-0.1669,0,-0.1096,-0.1141,-0.1231,-0.1279,-0.1301,-0.1344,-0.1396,-0.1439,-0.1484,-0.1498,-0.1535,-0.1545,-0.1602,-0.1577,-0.1657,-0.1623,-0.1651,-0.1669,-0.1672,-0.168,-0.1651,-0.1701,-0.1788,-0.1798,-0.1685,-0.1684,-0.1683,0,-0.114,-0.1224,-0.1289,-0.1312,-0.137,-0.14,-0.1426,-0.1469,-0.1501,-0.1547,-0.1568,-0.162,-0.1649,-0.1689,-0.1712,-0.1692,-0.179,-0.1767,-0.1804,-0.1804,-0.1826,-0.1824,-0.1919,-0.1842,-0.1842,-0.1842,-0.1842,0,-0.1219,-0.1274,-0.1309,-0.1349,-0.141,-0.1432,-0.1492,-0.1518,-0.1555,-0.16,-0.1609,-0.1651,-0.1678,-0.1724,-0.1743,-0.1806,-0.1819,-0.1832,-0.1837,-0.1832,-0.183,-0.1851,-0.1847,-0.1845,-0.1844,-0.1844,-0.1843,0,-0.128,-0.1306,-0.1377,-0.1425,-0.1439,-0.1482,-0.1524,-0.1563,-0.1585,-0.1642,-0.1656,-0.1692,-0.1746,-0.1773,-0.1841,-0.1853,-0.1924,-0.1925,-0.1909,-0.1911,-0.1947,-0.1943,-0.2058,-0.2075,-0.1987,-0.1988,-0.1989,0,-0.1329,-0.1371,-0.1424,-0.1454,-0.148,-0.1529,-0.1561,-0.1583,-0.1617,-0.167,-0.1703,-0.1757,-0.1802,-0.1888,-0.192,-0.1972,-0.1975,-0.2011,-0.1983,-0.1976,-0.1975,-0.1973,-0.1977,-0.2017,-0.2018,-0.2018,-0.2019,0,-0.1413,-0.1423,-0.1469,-0.152,-0.1558,-0.1599,-0.1639,-0.1663,-0.1692,-0.1729,-0.1784,-0.1819,-0.1887,-0.1941,-0.1994,-0.2021,-0.2025,-0.2028,-0.2039,-0.2035,-0.2024,-0.203,-0.1924,-0.2025,-0.2025,-0.2024,-0.2024,-0.2024,-0.147,-0.1507,-0.155,-0.1601,-0.1633,-0.167,-0.1708,-0.1735,-0.1781,-0.1838,-0.1848,-0.1907,-0.1949,-0.2021,-0.205,-0.2096,-0.2088,-0.2104,-0.2109,-0.2112,-0.2114,-0.2015,-0.2106,-0.2105,-0.2105,-0.2105,-0.2105,0,-0.1554,-0.1582,-0.1628,-0.1683,-0.1723,-0.1722,-0.1766,-0.18,-0.1851,-0.189,-0.1933,-0.1996,-0.2048,-0.2083,-0.2136,-0.2166,-0.2169,-0.2179,-0.2177,-0.2183,-0.2118,-0.2103,-0.2176,-0.2176,-0.2176,-0.2176,-0.2176,-0.2175,-0.1603,-0.1666,-0.1681,-0.176,-0.1787,-0.1844,-0.1869,-0.1903,-0.1934,-0.2004,-0.2047,-0.2069,-0.2107,-0.2162,-0.2209,-0.2218,-0.2237,-0.2248,-0.2257,-0.2195,-0.2188,-0.2181,-0.2167,-0.2251,-0.2252,-0.2318,-0.2318,-0.2319]},{"header":{"parameterUnit":"m.s-1","parameterCategory":1,"la1":30.2991,"la2":30.254,"lo1":-89.0895,"lo2":-89.0444,"dy":0.0017,"dx":0.0017,"nx":28,"ny":28,"refTime":"2025-01-22T03:00:00:Z","depth":0,"parameterNumber":3,"parameterNumberName":"V-component_of_WINDS"},"data":[0,0,0,0,0,0,0,0,0,0,0,0,0,0,0,0,0,0,0,0,0,0,0,0,0,0,0,0,0,0,0,0,0,0,0,0,0,0,0,0,0,0,0,0,0,0,0,0,0,0,0,0,0,0,0,0,0,0,-3.8728,-3.8729,0,-3.8818,-3.8819,-3.882,-3.8734,-3.873,-3.8727,-3.8724,-3.8812,-3.8817,-3.8823,0,0,0,0,0,0,0,0,0,0,0,0,0,-3.8478,-3.8484,-3.8728,-3.8729,-3.873,-3.8818,-3.8819,-3.882,-3.8734,-3.873,-3.8726,-3.8722,-3.881,-3.8817,-3.8823,0,0,0,0,0,0,0,0,0,0,0,0,0,-3.8579,-3.8485,-3.8728,-3.8698,-3.8696,-3.8818,-3.8819,-3.882,-3.8735,-3.873,-3.8725,-3.872,-3.8808,-3.8816,-3.8824,-3.8978,0,0,-3.885,-3.8853,0,0,0,0,0,0,0,0,-3.8574,-3.8589,-3.8701,-3.8701,-3.8699,-3.8759,-3.8763,-3.8873,-3.8737,-3.872,-3.8724,-3.8718,-3.8798,-3.8807,-3.8835,-3.8982,-3.8986,-3.885,-3.8855,-3.8859,-3.8861,0,0,0,0,0,0,0,-3.8567,-3.8584,-3.8763,-3.8703,-3.8702,-3.8679,-3.8688,-3.8784,-3.8787,-3.8721,-3.8715,-3.8727,-3.8797,-3.8827,-3.8837,-3.8987,-3.885,-3.8858,-3.8863,-3.8866,-3.9264,-3.9269,0,0,0,0,0,0,-3.8564,-3.8579,-3.8761,-3.8766,-3.8622,-3.8688,-3.8697,-3.8745,-3.8786,-3.8787,-3.8732,-3.8723,-3.8816,-3.8827,-3.8839,-3.9022,-3.8859,-3.8867,-3.8871,-3.9259,-3.9265,-3.9271,0,0,0,0,0,0,-3.8559,-3.8581,-3.8757,-3.8671,-3.8692,-3.8697,-3.8752,-3.875,-3.878,-3.8794,-3.8793,-3.8763,-3.8812,-3.8828,-3.8944,-3.9024,-3.887,-3.8878,-3.9252,-3.9261,-3.9268,-3.9389,0,0,0,0,0,0,-3.8552,-3.8579,-3.8639,-3.8673,-3.8697,-3.8862,-3.8757,-3.8755,-3.8795,-3.8785,-3.8823,-3.8824,-3.8809,-3.8932,-3.8953,-3.9033,-3.8884,-3.9245,-3.9256,-3.9266,-3.9378,-3.9401,-3.942,0,0,0,0,0,-3.8543,-3.8669,-3.8643,-3.8665,-3.8772,-3.8867,-3.888,-3.8862,-3.8802,-3.8861,-3.887,-3.8823,-3.9012,-3.8945,-3.8967,-3.9051,-3.924,-3.9253,-3.9265,-3.9369,-3.9396,-3.9419,0,0,0,0,0,0,-3.8643,-3.8673,-3.8644,-3.8785,-3.8824,-3.8852,-3.8927,-3.8892,-3.8948,-3.8936,-3.8909,-3.8919,-3.9042,-3.9058,-3.8983,-3.9201,-3.9116,-3.9133,-3.9187,-3.9213,-3.9234,-3.9228,-3.8891,0,0,0,0,0,-3.8681,-3.8758,-3.8779,-3.8901,-3.8922,-3.8922,-3.8962,-3.8945,-3.8984,-3.9,-3.9017,-3.9056,-3.9124,-3.9169,-3.9232,-3.9379,-3.9386,-3.9448,-3.9468,-3.9486,-3.9501,-3.958,-3.9607,-3.9313,-3.9313,-3.9312,0,0,-3.8762,-3.8787,-3.8837,-3.8922,-3.895,-3.9029,-3.8936,-3.9023,-3.9081,-3.9013,-3.9125,-3.9138,-3.9179,-3.9312,-3.9371,-3.9329,-3.9584,-3.9502,-3.9515,-3.9522,-3.9595,-3.9623,-3.9648,-3.9321,-3.932,-3.9318,0,0,-3.8948,-3.8975,-3.908,-3.911,-3.9155,-3.9154,-3.9179,-3.9212,-3.9219,-3.9331,-3.9282,-3.9349,-3.9467,-3.9498,-3.953,-3.9727,-3.9686,-3.9748,-3.9858,-3.9935,-3.9958,-3.9978,-4.0049,-4.0074,-3.9764,-3.9764,-3.9764,0,-3.9042,-3.9159,-3.9138,-3.9229,-3.9267,-3.921,-3.9315,-3.9345,-3.9408,-3.9435,-3.9387,-3.9533,-3.9557,-3.9696,-3.9744,-3.9772,-3.9799,-3.9744,-3.9956,-3.9977,-3.9995,-4.0062,-4.0089,-3.9771,-3.977,-3.977,-3.9769,0,-3.9272,-3.9354,-3.9433,-3.9497,-3.9544,-3.9641,-3.9633,-3.9683,-3.9661,-3.9664,-3.9778,-3.9804,-3.9872,-3.9903,-3.9882,-4.0039,-4.0012,-3.9961,-3.9874,-4.0031,-4.0094,-4.0119,-3.9782,-3.9779,-3.9777,-3.9775,0,0,-3.9525,-3.9575,-3.9604,-3.9632,-3.9677,-3.974,-3.9833,-3.9901,-3.9944,-3.9989,-4.0066,-4.0167,-4.012,-4.0156,-4.0137,-4.0205,-4.0359,-4.0145,-4.0145,-4.0184,-4.0534,-4.0573,-4.0603,-4.0332,-4.0337,-4.034,-4.053,0,-3.9713,-3.9879,-3.9862,-4.0018,-4.0094,-4.004,-4.0122,-4.0157,-4.0162,-4.0226,-4.023,-4.0302,-4.0234,-4.0256,-4.032,-4.0327,-4.0429,-4.0313,-4.0403,-4.0407,-4.0396,-4.0636,-4.0677,-4.0856,-4.0555,-4.0559,-4.0562,0,-3.9955,-4.001,-4.0175,-4.0208,-4.0239,-4.0313,-4.0373,-4.0434,-4.0473,-4.0471,-4.0512,-4.0481,-4.0574,-4.0485,-4.0613,-4.0534,-4.057,-4.0579,-4.0585,-4.0593,-4.0495,-4.0651,-4.0912,-4.0939,-4.06,-4.0597,-4.0594,0,-4.0124,-4.0238,-4.0352,-4.0377,-4.0418,-4.0472,-4.0491,-4.0524,-4.0566,-4.0617,-4.0644,-4.0705,-4.0739,-4.0786,-4.0773,-4.0709,-4.0903,-4.0813,-4.0904,-4.0905,-4.0948,-4.0946,-4.122,-4.097,-4.097,-4.0969,-4.0969,0,-4.0336,-4.044,-4.0428,-4.0498,-4.0612,-4.059,-4.0702,-4.0714,-4.0744,-4.0815,-4.0771,-4.0837,-4.0815,-4.088,-4.087,-4.0977,-4.0992,-4.0993,-4.0989,-4.0998,-4.0998,-4.1021,-4.1009,-4.0977,-4.0975,-4.0974,-4.0972,0,-4.0545,-4.0541,-4.0661,-4.069,-4.07,-4.0782,-4.0806,-4.0871,-4.0872,-4.0962,-4.0981,-4.0983,-4.1057,-4.1048,-4.113,-4.1123,-4.1256,-4.1237,-4.1244,-4.124,-4.1332,-4.1324,-4.1631,-4.167,-4.1395,-4.1397,-4.14,0,-4.0681,-4.0759,-4.0797,-4.0842,-4.0865,-4.0937,-4.0979,-4.096,-4.1005,-4.1055,-4.1114,-4.1184,-4.1239,-4.136,-4.1367,-4.143,-4.1412,-4.1515,-4.1421,-4.1427,-4.1414,-4.141,-4.1418,-4.1534,-4.1537,-4.154,-4.1542,0,-4.0924,-4.0918,-4.0981,-4.1044,-4.1096,-4.1144,-4.1188,-4.1226,-4.1211,-4.1264,-4.134,-4.1383,-4.1467,-4.1537,-4.1596,-4.1614,-4.1576,-4.1571,-4.1596,-4.1606,-4.1607,-4.1608,-4.1296,-4.1565,-4.1563,-4.1561,-4.156,-4.1559,-4.11,-4.1167,-4.1205,-4.1276,-4.1307,-4.1349,-4.1411,-4.142,-4.1484,-4.1552,-4.1536,-4.1622,-4.1656,-4.1732,-4.1756,-4.1821,-4.1784,-4.1819,-4.1828,-4.1837,-4.1848,-4.1596,-4.1832,-4.1831,-4.183,-4.183,-4.1829,0,-4.1341,-4.1362,-4.1429,-4.1491,-4.1548,-4.1507,-4.1553,-4.1602,-4.1679,-4.1715,-4.1771,-4.1857,-4.1925,-4.1938,-4.2002,-4.2052,-4.2036,-4.2069,-4.2066,-4.207,-4.1878,-4.1851,-4.2081,-4.2081,-4.2081,-4.2081,-4.2081,-4.2081,-4.1473,-4.1585,-4.1583,-4.1709,-4.1728,-4.1813,-4.1843,-4.188,-4.1909,-4.2009,-4.2065,-4.2073,-4.21,-4.2165,-4.2225,-4.2227,-4.2252,-4.2293,-4.2288,-4.2109,-4.2084,-4.206,-4.2034,-4.2299,-4.2299,-4.2474,-4.2476,-4.2477]}]]